Location: Laverne
(36.7100°N, 99.8930°W)
Time: 07:12:34
(UTC-06:00)

Meteor 2-5 Rocket - Pass Details

Date: 19 October 2017
Orbit: 833 x 912 km, 81.2° (Epoch: 22 November)

Event Time Altitude Azimuth Distance (km) Brightness Sun altitude
Rises 06:33:21 0° 200° (SSW) 3,527 6.7 -16.3°
Reaches altitude 10° 06:35:53 10° 205° (SSW) 2,585 6.0 -15.8°
Maximum altitude 06:41:38 53° 282° (WNW) 1,100 3.9 -14.6°
Drops below altitude 10° 06:47:20 10° 358° (N) 2,562 6.2 -13.5°
Sets 06:49:51 0° 4° (N) 3,494 6.9 -13.0°
